Martinsburg, WV

6:19 AM EDT on October 17, 2017 (GMT -0400)
Eastern W Va Regional-Shepherd

Weather History for KMRB - July, 2013

Change the Weather History Date:

Tuesday, July 23, 2013

  Actual Average Record
Temperature  
Mean Temperature 78 °F 75 °F  
Max Temperature 86 °F 86 °F 106 °F (1926)
Min Temperature 70 °F 64 °F 51 °F (1983)
Degree Days  
Heating Degree Days 0 0  
Month to date heating degree days 0 0  
Since 1 June heating degree days 2 24  
Since 1 July heating degree days 0 0  
Cooling Degree Days 13 10  
Month to date cooling degree days 319 226  
Year to date cooling degree days 658 466  
Since 1 June cooling degree days 547 409  
Growing Degree Days 28 (Base 50)    
Moisture  
Dew Point 68 °F    
Average Humidity 71    
Maximum Humidity 93    
Minimum Humidity 48    
Precipitation  
Precipitation 0.04 in 0.13 in 1.71 in (2008)
Month to date precipitation 2.68 2.69  
Year to date precipitation 17.94 22.18  
Sea Level Pressure  
Sea Level Pressure 29.74 in    
Wind  
Wind Speed 6 mph (West)    
Max Wind Speed 20 mph    
Max Gust Speed 24 mph    
Visibility 8 miles    
Events Rain    
T = Trace of Precipitation, MM = Missing Value Source: NWS Daily Summary

Daily Weather History Graph

Daily Weather History Graph

Search for Another Location

Airport or City:

Trip Planner

Search our weather history database for the weather conditions in past years. The results will help you decide how hot, cold, wet, or windy it might be!

Date:

Astronomy

Jul. 23, 2013 Rise Set
Actual Time 6:04 AM EDT 8:32 PM EDT
Civil Twilight 5:33 AM EDT 9:02 PM EDT
Nautical Twilight 4:55 AM EDT 9:40 PM EDT
Astronomical Twilight 4:12 AM EDT 10:23 PM EDT
Moon 9:00 PM EDT (7/23) 7:09 AM EDT (7/23)
Length of Visible Light 15h 29m
Length of Day
14h 28m
Full, 99% of the Moon is Illuminated
Jul 23
Full
Jul 29
Last Quarter
Aug 6
New
Aug 14
First Quarter
Aug 20
Full

Hourly Weather History & Observations

Time (EDT) Temp. Heat Index Dew Point Humidity Pressure Visibility Wind Dir Wind Speed Gust Speed Precip Events Conditions
12:18 AM 71.6 °F - 69.8 °F 94% 29.79 in 10.0 mi SSE 4.6 mph - N/A   Partly Cloudy
12:53 AM 71.1 °F - 69.1 °F 93% 29.77 in 7.0 mi Calm Calm - N/A   Mostly Cloudy
1:00 AM 71.6 °F - 69.8 °F 94% 29.78 in 7.0 mi Calm Calm - N/A   Scattered Clouds
1:07 AM 71.6 °F - 69.8 °F 94% 29.77 in 6.0 mi Calm Calm - 0.00 in Rain Light Rain
1:14 AM 71.6 °F - 69.8 °F 94% 29.77 in 5.0 mi Calm Calm - 0.00 in Rain Light Rain
1:22 AM 71.6 °F - 69.8 °F 94% 29.78 in 6.0 mi Calm Calm - 0.00 in Rain Light Rain
1:53 AM 71.1 °F - 69.1 °F 93% 29.75 in 6.0 mi Calm Calm - 0.00 in   Overcast
2:53 AM 71.1 °F - 70.0 °F 96% 29.73 in 5.0 mi Calm Calm - N/A   Overcast
3:53 AM 71.1 °F - 70.0 °F 96% 29.73 in 3.0 mi Calm Calm - 0.01 in Rain Light Rain
4:53 AM 71.1 °F - 70.0 °F 96% 29.73 in 2.0 mi Calm Calm - 0.00 in   Overcast
5:00 AM 71.6 °F - 69.8 °F 94% 29.74 in 1.0 mi Calm Calm - N/A   Overcast
5:07 AM 71.6 °F - 69.8 °F 94% 29.74 in 0.8 mi Calm Calm - N/A   Mist
5:35 AM 71.6 °F - 69.8 °F 94% 29.75 in 2.0 mi Calm Calm - N/A   Overcast
5:45 AM 71.6 °F - 69.8 °F 94% 29.75 in 3.0 mi Calm Calm - 0.00 in Rain Light Rain
5:53 AM 71.1 °F - 70.0 °F 96% 29.73 in 2.5 mi Calm Calm - 0.01 in Rain Light Rain
6:02 AM 71.6 °F - 69.8 °F 94% 29.75 in 3.0 mi Calm Calm - 0.00 in Rain Light Rain
6:40 AM 71.6 °F - 69.8 °F 94% 29.76 in 5.0 mi Calm Calm - 0.01 in Rain Light Rain
6:53 AM 72.0 °F - 70.0 °F 93% 29.74 in 8.0 mi Calm Calm - 0.01 in   Overcast
7:53 AM 72.0 °F - 70.0 °F 93% 29.74 in 10.0 mi Variable 3.5 mph - N/A   Partly Cloudy
8:17 AM 73.4 °F - 69.8 °F 88% 29.75 in 9.0 mi South 4.6 mph - N/A   Mostly Cloudy
8:31 AM 73.4 °F - 71.6 °F 94% 29.75 in 10.0 mi South 3.5 mph - N/A   Scattered Clouds
8:53 AM 75.9 °F - 70.0 °F 82% 29.74 in 10.0 mi South 4.6 mph - N/A   Mostly Cloudy
9:53 AM 75.9 °F - 68.0 °F 76% 29.73 in 10.0 mi West 9.2 mph - N/A   Overcast
10:28 AM 77.0 °F - 68.0 °F 74% 29.74 in 10.0 mi Calm Calm - N/A   Overcast
10:53 AM 79.0 °F - 66.9 °F 66% 29.73 in 10.0 mi WSW 8.1 mph - N/A   Overcast
11:04 AM 78.8 °F - 66.2 °F 65% 29.74 in 10.0 mi West 6.9 mph - N/A   Overcast
11:53 AM 79.0 °F - 66.0 °F 64% 29.73 in 10.0 mi WNW 11.5 mph - N/A   Overcast
12:53 PM 82.0 °F 84.5 °F 66.9 °F 60% 29.73 in 10.0 mi WNW 16.1 mph 21.9 mph N/A   Clear
1:53 PM 82.0 °F 84.1 °F 66.0 °F 58% 29.73 in 10.0 mi WNW 13.8 mph 19.6 mph N/A   Mostly Cloudy
2:53 PM 82.9 °F 84.6 °F 64.9 °F 54% 29.72 in 10.0 mi West 12.7 mph - N/A   Clear
3:53 PM 84.9 °F 86.6 °F 64.9 °F 51% 29.71 in 10.0 mi West 12.7 mph 20.7 mph N/A   Scattered Clouds
4:53 PM 86.0 °F 87.3 °F 64.0 °F 48% 29.69 in 10.0 mi WNW 10.4 mph - N/A   Clear
5:53 PM 84.9 °F 86.1 °F 64.0 °F 49% 29.68 in 10.0 mi WNW 10.4 mph - N/A   Clear
6:53 PM 84.9 °F 86.1 °F 64.0 °F 49% 29.68 in 10.0 mi NW 6.9 mph - N/A   Clear
7:53 PM 82.9 °F 84.0 °F 63.0 °F 51% 29.70 in 10.0 mi WNW 3.5 mph - N/A   Clear
8:53 PM 75.0 °F - 66.9 °F 76% 29.70 in 10.0 mi SSW 3.5 mph - N/A   Clear
9:53 PM 78.1 °F - 64.9 °F 64% 29.70 in 10.0 mi WSW 6.9 mph - N/A   Clear
10:53 PM 77.0 °F - 64.9 °F 66% 29.71 in 10.0 mi WSW 5.8 mph - N/A   Clear
11:53 PM 77.0 °F - 61.0 °F 58% 29.74 in 10.0 mi WNW 6.9 mph 17.3 mph 0.00 in Rain Light Rain